METEOR 2-6 DEB, 28986

Orbit data source: Space-Track

METEOR 2-6 DEB, 28986 is space debris in LEO originally from a launch on Tue, 09 Sep 1980 UTC launched from the Plesetsk Missile And Space Complex (PKMTR). Debris objects in space refer to the collection of defunct objects orbiting the Earth. Examples of debris include non-operational satellites, rocket bodies, and fragments generated from explosions, collisions, or faulty payload assembly.

Loading next visibility...
Identifier
28986, 1980-073C
Orbit
LEO
Country
Flag of CISCIS
Related business
Manufacturer
Unknown
Mission
Spacecraft
Bus & Motor
Unknown
Mass
Unknown
Launch date (UTC)
1980-09-09 (46 years ago)
Launch vehicle
Unknown
Launch site
Plesetsk Missile And Space Complex (PKMTR)
Object type
Payload
Rocket body
Debris
Shape & HBR
Unknown shape, 0.050 m
Radar Cross Section
Small (<0.1 m²)

Expand to show TLE details & history
Last TLE update: 4 days ago

TLE from 4 days ago
0 METEOR 2-6 DEB
1 28986U 80073C   26263.99580065  .00003339  00000-0  60308-3 0  9990
2 28986  81.2040 160.6757 0021598  65.5070 294.8380 14.66122506666027
Epoch: 2026-09-20T23:53Z
TLE epoch observation values (Epoch: 2026-09-20T23:53:57.176Z)
Latitude
-0.00006°
Longitude
162.30548°
Altitude
670.077 km
Speed
7.525 km/s
True Right ascension
10h 42m 42s
True Declination
0° 00' 00"
Sunlit
Object was in daylight at epoch
Visualization orbit readout
Latitude
Unknown
Longitude
Unknown
Altitude
Unknown
Speed
Unknown
Apparent Right ascension
Unknown
Apparent Declination
Unknown
Sunlit
N/A
Visualization observer readout
Local Sidereal Time
10:08:34
Azimuth
Unknown
Elevation
Unknown
Doppler factor
Unknown
Orbital elements
Apogee altitude
685.799 km
Perigee altitude
655.351 km
Semi-major axis
7,048.712 km
Eccentricity
0.00216
Inclination
81.204°
RAAN
160.6757°
Arg. of periapsis
65.507°
True anomaly
294.61314°
Mean anomaly
294.838°
Eccentric anomaly
294.7256°
Mean motion
3.66757 °/min
Orbital period
98.16 mins
BSTAR
0.00060308
Loading maneuver chart data...
Computing Atmospheric mass density...
Loading historical data...
Loading historical data...
Loading historical data...
Loading historical data...
Loading historical data...
Loading historical data...
Loading historical data...

Documentation

Showing up to 5 results
|